When you browse on this site, cookies collect data to enhance your experience and personalize the content and advertising you see.
Visit our Privacy Policy to learn more. By continuing to use the site, you agree to this use of cookies and data.
  • In Romania
  • List of Countries
  • For 7 days
  • Water Temperature
  • Satellite Maps
  • Weather Map
  • Weather Widgets
  • user-avatar
    Login

    Hourly Weather Krasnye Zori

    Today, 18 June, Tuesday

    Time Temperature Precipitation Wind Pressure Humidity
    00:00 +17°C° 0 mm 2 mps 742 mmHg 88%
    01:00 +17°C° 0 mm 2 mps 742 mmHg 88%
    02:00 +17°C° 0 mm 2 mps 742 mmHg 88%
    03:00 +17°C° 0 mm 2 mps 742 mmHg 88%
    04:00 +17°C° 0 mm 2 mps 742 mmHg 87%
    05:00 +17°C° 0 mm 2 mps 742 mmHg 87%
    06:00 +19°C° 0 mm 2 mps 742 mmHg 78%
    07:00 +20°C° 0 mm 2 mps 743 mmHg 69%
    08:00 +23°C° 0 mm 2 mps 743 mmHg 60%
    09:00 +22°C° 0.2 mm 3 mps 743 mmHg 61%
    10:00 +24°C° 0.2 mm 3 mps 743 mmHg 61%
    11:00 +23°C° 0.2 mm 4 mps 743 mmHg 61%
    12:00 +25°C° 0.1 mm 4 mps 743 mmHg 57%
    13:00 +26°C° 0.1 mm 4 mps 743 mmHg 53%
    14:00 +26°C° 0.1 mm 4 mps 743 mmHg 49%
    15:00 +26°C° 0 mm 4 mps 743 mmHg 48%
    16:00 +25°C° 0 mm 4 mps 743 mmHg 46%
    17:00 +25°C° 0 mm 4 mps 743 mmHg 45%
    18:00 +22°C° 0 mm 3 mps 743 mmHg 54%
    19:00 +20°C° 0 mm 2 mps 743 mmHg 63%
    20:00 +18°C° 0 mm 2 mps 743 mmHg 72%
    21:00 +17°C° 0 mm 2 mps 743 mmHg 73%
    22:00 +16°C° 0 mm 2 mps 744 mmHg 74%
    23:00 +16°C° 0 mm 2 mps 744 mmHg 75%

    Tomorrow, 19 June, Wednesday

    Time Temperature Precipitation Wind Pressure Humidity
    00:00 +15°C° 0 mm 2 mps 744 mmHg 77%
    01:00 +14°C° 0 mm 2 mps 744 mmHg 79%
    02:00 +14°C° 0 mm 2 mps 744 mmHg 82%
    03:00 +14°C° 0 mm 2 mps 745 mmHg 80%
    04:00 +15°C° 0 mm 2 mps 745 mmHg 78%
    05:00 +15°C° 0 mm 2 mps 745 mmHg 76%
    06:00 +18°C° 0 mm 2 mps 745 mmHg 69%
    07:00 +20°C° 0 mm 2 mps 745 mmHg 61%
    08:00 +23°C° 0 mm 2 mps 745 mmHg 54%
    09:00 +24°C° 0 mm 2 mps 745 mmHg 50%
    10:00 +25°C° 0 mm 2 mps 746 mmHg 46%
    11:00 +26°C° 0 mm 2 mps 746 mmHg 43%
    12:00 +27°C° 0 mm 2 mps 746 mmHg 41%
    13:00 +27°C° 0 mm 2 mps 745 mmHg 39%
    14:00 +28°C° 0 mm 2 mps 745 mmHg 37%
    15:00 +28°C° 0 mm 2 mps 745 mmHg 40%
    16:00 +27°C° 0 mm 2 mps 745 mmHg 43%
    17:00 +27°C° 0 mm 1 mps 745 mmHg 46%
    18:00 +25°C° 0 mm 1 mps 745 mmHg 54%
    19:00 +22°C° 0 mm 1 mps 745 mmHg 61%
    20:00 +20°C° 0 mm 1 mps 745 mmHg 69%
    21:00 +19°C° 0 mm 1 mps 745 mmHg 70%
    22:00 +18°C° 0 mm 1 mps 745 mmHg 71%
    23:00 +16°C° 0 mm 1 mps 745 mmHg 72%

    Day after tomorrow, 20 June, Thursday

    Time Temperature Precipitation Wind Pressure Humidity
    00:00 +15°C° 0 mm 1 mps 745 mmHg 72%
    01:00 +14°C° 0 mm 0 mps 745 mmHg 72%
    02:00 +13°C° 0 mm 0 mps 745 mmHg 73%
    03:00 +14°C° 0 mm 0 mps 745 mmHg 72%
    04:00 +15°C° 0 mm 0 mps 746 mmHg 72%
    05:00 +16°C° 0 mm 0 mps 746 mmHg 72%
    06:00 +20°C° 0 mm 1 mps 746 mmHg 65%
    07:00 +22°C° 0 mm 1 mps 746 mmHg 58%
    08:00 +25°C° 0 mm 1 mps 746 mmHg 51%
    09:00 +26°C° 0 mm 1 mps 746 mmHg 46%
    10:00 +27°C° 0 mm 1 mps 746 mmHg 42%
    11:00 +28°C° 0 mm 1 mps 746 mmHg 37%
    12:00 +29°C° 0 mm 2 mps 745 mmHg 37%
    13:00 +29°C° 0 mm 2 mps 745 mmHg 37%
    14:00 +29°C° 0 mm 2 mps 745 mmHg 37%
    15:00 +28°C° 0 mm 2 mps 745 mmHg 43%
    16:00 +28°C° 0 mm 2 mps 745 mmHg 48%
    17:00 +27°C° 0 mm 2 mps 744 mmHg 53%
    18:00 +25°C° 0 mm 2 mps 744 mmHg 60%
    19:00 +23°C° 0 mm 2 mps 744 mmHg 67%
    20:00 +21°C° 0 mm 2 mps 744 mmHg 73%
    21:00 +20°C° 0 mm 2 mps 744 mmHg 73%
    22:00 +19°C° 0 mm 2 mps 745 mmHg 73%
    23:00 +18°C° 0 mm 2 mps 745 mmHg 73%

    21 June, Friday

    Time Temperature Precipitation Wind Pressure Humidity
    00:00 +18°C° 0 mm 2 mps 745 mmHg 75%
    01:00 +18°C° 0 mm 1 mps 745 mmHg 78%
    02:00 +18°C° 0 mm 1 mps 745 mmHg 81%
    03:00 +19°C° 0 mm 1 mps 745 mmHg 81%
    04:00 +19°C° 0 mm 1 mps 745 mmHg 81%
    05:00 +20°C° 0 mm 1 mps 745 mmHg 80%
    06:00 +20°C° 0 mm 2 mps 745 mmHg 75%
    07:00 +23°C° 0 mm 2 mps 745 mmHg 70%
    08:00 +24°C° 0 mm 2 mps 745 mmHg 65%
    09:00 +25°C° 0 mm 3 mps 745 mmHg 60%
    10:00 +26°C° 0 mm 3 mps 745 mmHg 56%
    11:00 +27°C° 0 mm 3 mps 745 mmHg 52%
    12:00 +27°C° 0 mm 3 mps 745 mmHg 56%
    13:00 +26°C° 0 mm 3 mps 745 mmHg 59%
    14:00 +25°C° 0 mm 3 mps 744 mmHg 63%
    15:00 +25°C° 0 mm 3 mps 744 mmHg 65%
    16:00 +25°C° 0 mm 3 mps 744 mmHg 67%
    17:00 +25°C° 0 mm 3 mps 744 mmHg 69%
    18:00 +24°C° 0.1 mm 3 mps 744 mmHg 75%
    19:00 +22°C° 0.1 mm 3 mps 744 mmHg 81%
    20:00 +20°C° 0.1 mm 3 mps 744 mmHg 87%
    21:00 +20°C° 0.1 mm 3 mps 744 mmHg 89%
    22:00 +20°C° 0.1 mm 2 mps 744 mmHg 91%
    23:00 +19°C° 0.1 mm 2 mps 744 mmHg 93%

    22 June, Saturday

    Time Temperature Precipitation Wind Pressure Humidity
    00:00 +19°C° 0.1 mm 2 mps 744 mmHg 94%
    01:00 +19°C° 0.1 mm 2 mps 744 mmHg 95%
    02:00 +19°C° 0.1 mm 2 mps 743 mmHg 96%
    03:00 +19°C° 0.9 mm 2 mps 743 mmHg 96%
    04:00 +19°C° 0.9 mm 2 mps 743 mmHg 97%
    05:00 +19°C° 0.9 mm 2 mps 743 mmHg 98%
    06:00 +20°C° 0.7 mm 2 mps 743 mmHg 97%
    07:00 +20°C° 0.7 mm 3 mps 743 mmHg 96%
    08:00 +21°C° 0.7 mm 3 mps 743 mmHg 95%
    09:00 +24°C° 0 mm 3 mps 743 mmHg 86%
    10:00 +25°C° 0 mm 3 mps 743 mmHg 78%
    11:00 +27°C° 0 mm 3 mps 742 mmHg 69%
    12:00 +27°C° 1.6 mm 4 mps 742 mmHg 73%
    13:00 +27°C° 1.6 mm 4 mps 742 mmHg 77%
    14:00 +27°C° 1.6 mm 4 mps 742 mmHg 81%
    15:00 +26°C° 2 mm 3 mps 741 mmHg 84%
    16:00 +26°C° 2 mm 3 mps 741 mmHg 87%
    17:00 +25°C° 2 mm 3 mps 741 mmHg 90%
    18:00 +24°C° 0.3 mm 2 mps 741 mmHg 91%
    19:00 +23°C° 0.3 mm 2 mps 742 mmHg 93%
    20:00 +23°C° 0.3 mm 2 mps 742 mmHg 94%
    21:00 +21°C° 0.1 mm 2 mps 742 mmHg 95%
    22:00 +20°C° 0.1 mm 2 mps 742 mmHg 96%
    23:00 +19°C° 0.1 mm 2 mps 743 mmHg 97%

    23 June, Sunday

    Time Temperature Precipitation Wind Pressure Humidity
    00:00 +19°C° 0 mm 2 mps 743 mmHg 97%
    01:00 +19°C° 0 mm 2 mps 743 mmHg 98%
    02:00 +18°C° 0 mm 2 mps 744 mmHg 98%
    03:00 +18°C° 0 mm 2 mps 744 mmHg 97%
    04:00 +17°C° 0 mm 2 mps 745 mmHg 96%
    05:00 +17°C° 0 mm 2 mps 745 mmHg 95%
    06:00 +17°C° 0 mm 2 mps 745 mmHg 89%
    07:00 +18°C° 0 mm 2 mps 745 mmHg 84%
    08:00 +18°C° 0 mm 2 mps 746 mmHg 79%
    09:00 +20°C° 0 mm 2 mps 746 mmHg 70%
    10:00 +23°C° 0 mm 2 mps 746 mmHg 62%
    11:00 +25°C° 0 mm 2 mps 746 mmHg 53%
    12:00 +26°C° 0 mm 2 mps 746 mmHg 52%
    13:00 +26°C° 0 mm 2 mps 746 mmHg 50%
    14:00 +27°C° 0 mm 2 mps 746 mmHg 49%
    15:00 +26°C° 0 mm 2 mps 746 mmHg 51%
    16:00 +26°C° 0 mm 2 mps 746 mmHg 53%
    17:00 +25°C° 0 mm 2 mps 745 mmHg 56%
    18:00 +24°C° 0 mm 3 mps 745 mmHg 59%
    19:00 +21°C° 0 mm 3 mps 745 mmHg 63%
    20:00 +20°C° 0 mm 3 mps 745 mmHg 66%
    21:00 +18°C° 0.3 mm 3 mps 745 mmHg 72%
    22:00 +17°C° 0.3 mm 3 mps 745 mmHg 78%
    23:00 +16°C° 0.3 mm 3 mps 745 mmHg 83%
    Show more